Weather History for Farnborough, United Kingdom

Change the Weather History Date:

Thursday, October 11, 2012

  Actual Average Record
Temperature  
Mean Temperature 54 °F -  
Max Temperature 59 °F - - ()
Min Temperature 48 °F - - ()
Degree Days  
Heating Degree Days 12    
Growing Degree Days 4 (Base 50)    
Moisture  
Dew Point 54 °F    
Average Humidity 93    
Maximum Humidity 100    
Minimum Humidity 72    
Precipitation  
Precipitation 0.31 in - - ()
Sea Level Pressure  
Sea Level Pressure 29.59 in    
Wind  
Wind Speed 7 mph ()    
Max Wind Speed 10 mph    
Max Gust Speed -    
Visibility 4.7 miles    
Events Rain    
T = Trace of Precipitation, MM = Missing Value Source: Averaged Metar Reports

Daily Weather History Graph

Daily Weather History Graph

Search for Another Location

Airport:

Trip Planner

Search our weather history database for the weather conditions in past years. The results will help you decide how hot, cold, wet, or windy it might be!

Date:

Astronomy

Oct. 11, 2012 Rise Set
Actual Time 7:20 AM BST 6:17 PM BST
Civil Twilight 6:47 AM BST 6:51 PM BST
Nautical Twilight 6:08 AM BST 7:29 PM BST
Astronomical Twilight 5:30 AM BST 8:08 PM BST
Moon 2:15 AM BST (10/11) 4:10 PM BST (10/11)
Length of Visible Light 12h 04m
Length of Day
10h 57m
Waning Crescent, 20% of the Moon is Illuminated
Oct 11
Waning Crescent
Oct 15
New
Oct 22
First Quarter
Oct 29
Full
Nov 7
Last Quarter

Hourly Weather History & Observations

Time (BST) Temp. Dew Point Humidity Pressure Visibility Wind Dir Wind Speed Gust Speed Precip Events Conditions
12:50 AM 50 °F 44 °F 72% 29.86 in 12 mi SE 9.2 mph - -   Scattered Clouds
3:50 AM 52 °F 47 °F 76% 29.77 in 11 mi ESE 8.1 mph - -   Overcast
6:50 AM 49 °F 46 °F 87% 29.71 in 7 mi East 6.9 mph - -   Overcast
6:50 AM 48.2 °F 46.4 °F 93% 29.71 in 6.2 mi East 6.9 mph - N/A   Mostly Cloudy
7:20 AM 50.0 °F 46.4 °F 87% 29.71 in 6.2 mi East 6.9 mph - N/A   Overcast
7:50 AM 50.0 °F 48.2 °F 94% 29.68 in 5.6 mi East 5.8 mph - N/A   Overcast
8:20 AM 51.8 °F 50.0 °F 94% 29.68 in 3.7 mi ESE 10.4 mph - N/A   Overcast
8:50 AM 51.8 °F 50.0 °F 94% 29.68 in 3.1 mi ESE 9.2 mph - N/A   Overcast
9:20 AM 51.8 °F 50.0 °F 94% 29.68 in 3.1 mi East 6.9 mph - N/A   Overcast
9:50 AM 54 °F 52 °F 91% 29.68 in 2 mi ESE 8.1 mph - -   Overcast
9:50 AM 51.8 °F 50.0 °F 94% 29.68 in 2.5 mi ESE 6.9 mph - N/A   Overcast
10:20 AM 53.6 °F 51.8 °F 94% 29.65 in 1.9 mi ESE 10.4 mph - N/A Rain Rain
10:50 AM 53.6 °F 51.8 °F 94% 29.65 in 1.9 mi East 8.1 mph - N/A Rain Rain
11:20 AM 55.4 °F 53.6 °F 94% 29.65 in 1.6 mi ESE 6.9 mph - N/A Rain Rain
11:50 AM 55.4 °F 51.8 °F 88% 29.62 in 2.5 mi ESE 6.9 mph - N/A Rain Rain
12:20 PM 55.4 °F 53.6 °F 94% 29.62 in - East 8.1 mph - N/A   Drizzle
12:50 PM 56 °F 55 °F 96% 29.61 in 1 mi ESE 6.9 mph - -   Overcast
12:50 PM 55.4 °F 53.6 °F 94% 29.59 in 1.2 mi East 8.1 mph - N/A Rain Rain
1:20 PM 55.4 °F 55.4 °F 100% 29.59 in 3.1 mi ESE 6.9 mph - N/A   Drizzle
1:50 PM 57.2 °F 55.4 °F 94% 29.59 in 3.7 mi ESE 8.1 mph - N/A   Drizzle
2:20 PM 57.2 °F 55.4 °F 94% 29.56 in 3.1 mi ESE 9.2 mph - N/A   Drizzle
2:50 PM 57.2 °F 55.4 °F 94% 29.56 in 3.7 mi ESE 8.1 mph - N/A Rain Rain
3:20 PM 59.0 °F 57.2 °F 94% 29.53 in 5.0 mi ESE 8.1 mph - N/A   Drizzle
3:50 PM 59 °F 58 °F 97% 29.54 in 1 mi ESE 8.1 mph - -   Mostly Cloudy
3:50 PM 57.2 °F 57.2 °F 100% 29.53 in 3.7 mi East 8.1 mph - N/A Rain Rain
4:20 PM 59.0 °F 57.2 °F 94% 29.53 in 3.1 mi ESE 8.1 mph - N/A Rain Rain
4:50 PM 59.0 °F 57.2 °F 94% 29.50 in 5.0 mi ESE 8.1 mph - N/A Rain Light Rain
5:20 PM 59.0 °F 57.2 °F 94% 29.50 in 1.9 mi SSE 5.8 mph - N/A Rain Rain
5:50 PM 59.0 °F 59.0 °F 100% 29.50 in 3.7 mi SE 8.1 mph - N/A Rain Light Rain
6:20 PM 59.0 °F 57.2 °F 94% 29.50 in 5.0 mi SSE 6.9 mph - N/A   Mostly Cloudy
6:50 PM 60 °F 58 °F 90% 29.49 in 19 mi South 8.1 mph - -   Partly Cloudy
6:50 PM 59.0 °F 57.2 °F 94% 29.47 in 6.2 mi South 8.1 mph - N/A   Mostly Cloudy
7:20 PM - - N/A% 29.47 in 6.2 mi South 5.8 mph - N/A Rain Light Rain
7:50 PM 59.0 °F 57.2 °F 94% 29.47 in 2.5 mi SSE 5.8 mph - N/A Rain Light Rain
8:20 PM 59.0 °F 57.2 °F 94% 29.47 in 1.9 mi South 9.2 mph - N/A Rain Rain
8:50 PM 59.0 °F 57.2 °F 94% 29.47 in 5.6 mi SSW 10.4 mph - N/A   Mostly Cloudy
9:20 PM 57.2 °F 57.2 °F 100% 29.47 in 3.7 mi South 9.2 mph - N/A   Mostly Cloudy
9:50 PM 59 °F 58 °F 93% 29.49 in 16 mi SSW 8.1 mph - -   Scattered Clouds